TimeAKST,TemperatureF,Dew PointF,Humidity,Sea Level PressureIn,VisibilityMPH,Wind Direction,Wind SpeedMPH,Gust SpeedMPH,PrecipitationIn,Events,Conditions,WindDirDegrees,DateUTC
12:53 AM,25.0,21.0,85,29.61,10.0,NNW,3.5,-,N/A,,Clear,330,2013-02-07 09:53:00
1:53 AM,21.9,19.9,92,29.60,10.0,Calm,Calm,-,N/A,,Partly Cloudy,0,2013-02-07 10:53:00
2:46 AM,24.8,21.2,86,29.59,10.0,Calm,Calm,-,N/A,,Overcast,0,2013-02-07 11:46:00
2:53 AM,25.0,21.9,88,29.58,10.0,North,4.6,-,N/A,,Overcast,350,2013-02-07 11:53:00
3:09 AM,26.6,21.2,80,29.57,10.0,Calm,Calm,-,N/A,,Overcast,0,2013-02-07 12:09:00
3:35 AM,26.6,21.2,80,29.57,10.0,East,3.5,-,N/A,,Overcast,90,2013-02-07 12:35:00
3:53 AM,25.0,23.0,92,29.57,10.0,West,3.5,-,N/A,,Overcast,280,2013-02-07 12:53:00
4:53 AM,26.1,23.0,88,29.55,10.0,Calm,Calm,-,N/A,,Overcast,0,2013-02-07 13:53:00
5:53 AM,27.0,23.0,85,29.54,10.0,Calm,Calm,-,0.00,Snow,Light Snow,0,2013-02-07 14:53:00
6:29 AM,26.6,24.8,93,29.53,2.0,Calm,Calm,-,0.00,Snow,Light Snow,0,2013-02-07 15:29:00
6:36 AM,26.6,24.8,93,29.53,1.5,Calm,Calm,-,0.00,Snow,Light Snow,0,2013-02-07 15:36:00
6:43 AM,26.6,24.8,93,29.53,0.8,Calm,Calm,-,0.00,Snow,Light Snow,0,2013-02-07 15:43:00
6:51 AM,26.6,24.8,93,29.53,0.8,Calm,Calm,-,0.00,Snow,Light Snow,0,2013-02-07 15:51:00
6:53 AM,27.0,25.0,92,29.53,0.8,Calm,Calm,-,0.00,Snow,Light Snow,0,2013-02-07 15:53:00
6:57 AM,26.6,24.8,93,29.53,1.0,Calm,Calm,-,0.00,Snow,Light Snow,0,2013-02-07 15:57:00
7:06 AM,26.6,24.8,93,29.52,2.0,Calm,Calm,-,0.00,Snow,Light Snow,0,2013-02-07 16:06:00
7:20 AM,26.6,26.6,100,29.52,1.2,Calm,Calm,-,0.00,Snow,Light Snow,0,2013-02-07 16:20:00
7:27 AM,26.6,26.6,100,29.52,1.0,Calm,Calm,-,0.00,Snow,Light Snow,0,2013-02-07 16:27:00
7:35 AM,26.6,26.6,100,29.51,0.5,Calm,Calm,-,0.00,Fog-Snow,Snow,0,2013-02-07 16:35:00
7:53 AM,28.0,26.1,92,29.51,0.8,Calm,Calm,-,0.00,Snow,Light Snow,0,2013-02-07 16:53:00
8:05 AM,28.4,26.6,93,29.50,1.2,Calm,Calm,-,0.00,Snow,Light Snow,0,2013-02-07 17:05:00
8:20 AM,28.4,26.6,93,29.50,1.0,Calm,Calm,-,0.00,Snow,Light Snow,0,2013-02-07 17:20:00
8:40 AM,28.4,26.6,93,29.49,1.2,Calm,Calm,-,0.00,Snow,Light Snow,0,2013-02-07 17:40:00
8:51 AM,28.4,28.4,100,29.49,1.2,Calm,Calm,-,0.00,Snow,Light Snow,0,2013-02-07 17:51:00
8:53 AM,28.9,28.0,96,29.49,1.2,Calm,Calm,-,0.00,Snow,Light Snow,0,2013-02-07 17:53:00
10:53 AM,34.0,30.9,89,29.44,1.8,SSW,16.1,19.6,0.00,Snow,Light Snow,200,2013-02-07 19:53:00
11:06 AM,35.6,30.2,81,29.43,2.5,South,15.0,21.9,0.00,Snow,Light Snow,190,2013-02-07 20:06:00
11:17 AM,35.6,30.2,81,29.42,3.0,SSW,19.6,-,0.00,Snow,Light Snow,200,2013-02-07 20:17:00
11:35 AM,35.6,30.2,81,29.41,2.5,SSW,16.1,24.2,0.00,Snow,Light Snow,200,2013-02-07 20:35:00
11:48 AM,35.6,30.2,81,29.40,4.0,SSW,12.7,-,0.01,Snow,Light Snow,200,2013-02-07 20:48:00
11:53 AM,35.1,30.0,82,29.40,5.0,SSW,9.2,-,0.01,Snow,Light Snow,210,2013-02-07 20:53:00
12:18 PM,35.6,30.2,81,29.40,2.5,SSW,11.5,-,0.00,Snow,Light Snow,210,2013-02-07 21:18:00
12:30 PM,35.6,30.2,81,29.40,4.0,South,9.2,-,0.01,Snow,Light Snow,190,2013-02-07 21:30:00
12:40 PM,35.6,30.2,81,29.39,2.5,South,6.9,-,0.01,Snow,Light Snow,180,2013-02-07 21:40:00
12:53 PM,35.1,30.0,82,29.37,1.8,South,4.6,-,0.02,Snow,Light Snow,190,2013-02-07 21:53:00
1:25 PM,33.8,32.0,93,29.35,0.8,Variable,5.8,-,0.01,Snow,Light Snow,0,2013-02-07 22:25:00
1:40 PM,33.8,32.0,93,29.35,1.0,Calm,Calm,-,0.02,Snow,Light Snow,0,2013-02-07 22:40:00
1:51 PM,33.8,32.0,93,29.34,0.8,Calm,Calm,-,0.02,Snow,Light Snow,0,2013-02-07 22:51:00
1:53 PM,34.0,32.0,92,29.34,0.8,Calm,Calm,-,0.02,Snow,Light Snow,0,2013-02-07 22:53:00
2:15 PM,33.8,32.0,93,29.32,1.0,Calm,Calm,-,0.02,Snow,Light Snow,0,2013-02-07 23:15:00
2:19 PM,33.8,32.0,93,29.32,1.2,Calm,Calm,-,0.02,Snow,Light Snow,0,2013-02-07 23:19:00
2:45 PM,33.8,32.0,93,29.31,1.2,Calm,Calm,-,0.03,Snow,Light Snow,0,2013-02-07 23:45:00
2:53 PM,33.1,33.1,100,29.31,1.0,Calm,Calm,-,0.03,Snow,Light Snow,0,2013-02-07 23:53:00
3:09 PM,33.8,32.0,93,29.32,1.5,Calm,Calm,-,0.01,Snow,Light Snow,0,2013-02-08 00:09:00
3:31 PM,33.8,32.0,93,29.32,0.8,Calm,Calm,-,0.02,Snow,Light Snow,0,2013-02-08 00:31:00
3:51 PM,33.8,32.0,93,29.32,1.0,Calm,Calm,-,0.02,Snow,Light Snow,0,2013-02-08 00:51:00
3:53 PM,33.1,32.0,96,29.32,1.0,Calm,Calm,-,0.02,Snow,Light Snow,0,2013-02-08 00:53:00
4:03 PM,33.8,32.0,93,29.32,0.8,Calm,Calm,-,0.01,Snow,Light Snow,0,2013-02-08 01:03:00
4:12 PM,33.8,32.0,93,29.32,1.2,Calm,Calm,-,0.01,Snow,Light Snow,0,2013-02-08 01:12:00
4:43 PM,33.8,32.0,93,29.31,2.0,NNW,3.5,-,0.02,Snow,Light Snow,340,2013-02-08 01:43:00
4:53 PM,33.1,32.0,96,29.31,2.5,North,3.5,-,0.03,Snow,Light Snow,360,2013-02-08 01:53:00
5:01 PM,33.8,32.0,93,29.31,5.0,ENE,4.6,-,0.00,Snow,Light Snow,70,2013-02-08 02:01:00
5:53 PM,35.1,30.0,82,29.28,10.0,North,11.5,-,0.01,,Overcast,350,2013-02-08 02:53:00
6:53 PM,34.0,30.0,85,29.29,10.0,North,4.6,-,0.01,,Overcast,10,2013-02-08 03:53:00
7:53 PM,33.1,30.0,89,29.31,10.0,Calm,Calm,-,N/A,,Overcast,0,2013-02-08 04:53:00
8:53 PM,35.1,30.0,82,29.32,10.0,Calm,Calm,-,N/A,,Overcast,0,2013-02-08 05:53:00
9:53 PM,34.0,30.9,89,29.35,10.0,South,3.5,-,N/A,,Overcast,180,2013-02-08 06:53:00
10:53 PM,30.0,28.9,96,29.35,10.0,Calm,Calm,-,N/A,,Scattered Clouds,0,2013-02-08 07:53:00
11:53 PM,32.0,30.0,92,29.37,10.0,Calm,Calm,-,N/A,,Overcast,0,2013-02-08 08:53:00